[[{"header":{"parameterUnit":"m.s-1","parameterCategory":1,"la1":30.2991,"la2":30.254,"lo1":-89.0895,"lo2":-89.0444,"dy":0.0017,"dx":0.0017,"nx":28,"ny":28,"refTime":"2024-06-20T21:00:00:Z","depth":0,"parameterNumber":2,"parameterNumberName":"U-component_of_WINDS"},"data":[0,0,0,0,0,0,0,0,0,0,0,0,0,0,0,0,0,0,0,0,0,0,0,0,0,0,0,0,0,0,0,0,0,0,0,0,0,0,0,0,0,0,0,0,0,0,0,0,0,0,0,0,0,0,0,0,0,0,-2.9303,-2.9303,0,-2.9335,-2.9336,-2.9336,-2.9216,-2.9213,-2.9209,-2.9206,-2.9244,-2.9248,-2.9253,0,0,0,0,0,0,0,0,0,0,0,0,0,-2.914,-2.9143,-2.9303,-2.9303,-2.9303,-2.9335,-2.9336,-2.9336,-2.9217,-2.9213,-2.9208,-2.9204,-2.9243,-2.9248,-2.9253,0,0,0,0,0,0,0,0,0,0,0,0,0,-2.9196,-2.9145,-2.9302,-2.9248,-2.9243,-2.9335,-2.9336,-2.9336,-2.9218,-2.9213,-2.9207,-2.9202,-2.9241,-2.9247,-2.9254,-2.9402,0,0,-2.9274,-2.9276,0,0,0,0,0,0,0,0,-2.9193,-2.9202,-2.9255,-2.9252,-2.9247,-2.9266,-2.9292,-2.9358,-2.9219,-2.9228,-2.9206,-2.92,-2.9256,-2.9261,-2.9279,-2.9403,-2.9405,-2.9274,-2.9278,-2.9281,-2.9283,0,0,0,0,0,0,0,-2.9189,-2.92,-2.9316,-2.9256,-2.9251,-2.9222,-2.9224,-2.9304,-2.9272,-2.9226,-2.9218,-2.9223,-2.9253,-2.9273,-2.9279,-2.9406,-2.9274,-2.928,-2.9284,-2.9286,-2.9654,-2.9659,0,0,0,0,0,0,-2.9192,-2.9197,-2.9315,-2.9317,-2.9206,-2.923,-2.9232,-2.9265,-2.927,-2.9266,-2.9228,-2.9217,-2.9265,-2.9272,-2.928,-2.9455,-2.9281,-2.9287,-2.9291,-2.9648,-2.9655,-2.9661,0,0,0,0,0,0,-2.9189,-2.9203,-2.9313,-2.9255,-2.9266,-2.9238,-2.9277,-2.9269,-2.9289,-2.9271,-2.9265,-2.9254,-2.9261,-2.9271,-2.9372,-2.9454,-2.929,-2.9296,-2.9641,-2.965,-2.9658,-2.9805,0,0,0,0,0,0,-2.9184,-2.9203,-2.9258,-2.9257,-2.927,-2.9405,-2.9282,-2.9273,-2.93,-2.9287,-2.9295,-2.9291,-2.9257,-2.9363,-2.9379,-2.946,-2.9301,-2.9633,-2.9645,-2.9655,-2.9793,-2.9818,-2.9839,0,0,0,0,0,-2.9179,-2.9299,-2.9262,-2.9277,-2.9338,-2.9409,-2.9417,-2.9374,-2.9307,-2.9363,-2.9352,-2.9291,-2.9442,-2.9374,-2.9391,-2.9476,-2.9628,-2.9642,-2.9654,-2.9782,-2.9813,-2.9838,0,0,0,0,0,0,-2.9313,-2.9298,-2.9256,-2.9379,-2.9396,-2.9389,-2.9459,-2.9408,-2.9446,-2.9432,-2.9378,-2.9381,-2.9493,-2.9494,-2.9419,-2.9619,-2.9524,-2.9541,-2.9615,-2.9644,-2.9667,-2.9666,-2.9306,0,0,0,0,0,-2.9357,-2.9414,-2.9398,-2.9509,-2.9519,-2.9488,-2.9517,-2.9482,-2.9498,-2.9506,-2.9501,-2.952,-2.9572,-2.9607,-2.9654,-2.9791,-2.9792,-2.9857,-2.9881,-2.99,-2.9916,-2.999,-3.0019,-2.9704,-2.9704,-2.9704,0,0,-2.9448,-2.9447,-2.9487,-2.9535,-2.9545,-2.9607,-2.9495,-2.9565,-2.9611,-2.9517,-2.9612,-2.961,-2.9627,-2.9748,-2.98,-2.9752,-3.0003,-2.9916,-2.9932,-2.9938,-3.0006,-3.0036,-3.0063,-2.9713,-2.9711,-2.971,0,0,-2.9647,-2.9651,-2.9744,-2.9755,-2.9769,-2.9747,-2.9769,-2.9769,-2.9764,-2.9858,-2.9788,-2.9842,-2.9932,-2.9948,-2.9968,-3.0171,-3.0117,-3.0188,-3.031,-3.0382,-3.0407,-3.0429,-3.0503,-3.053,-3.0203,-3.0204,-3.0204,0,-2.976,-2.985,-2.9798,-2.9873,-2.9897,-2.9812,-2.9906,-2.9919,-2.9949,-2.9969,-2.9913,-3.0024,-3.003,-3.0153,-3.0202,-3.022,-3.0246,-3.0188,-3.0407,-3.0429,-3.0448,-3.0519,-3.0547,-3.0212,-3.0211,-3.021,-3.021,0,-2.9988,-3.0051,-3.0124,-3.0154,-3.0185,-3.027,-3.0232,-3.0271,-3.0233,-3.0217,-3.0315,-3.0318,-3.0364,-3.039,-3.0354,-3.0509,-3.0478,-3.0416,-3.0319,-3.0488,-3.0553,-3.058,-3.0225,-3.0222,-3.0219,-3.0217,0,0,-3.0276,-3.0273,-3.0302,-3.0314,-3.0323,-3.0372,-3.0452,-3.0495,-3.053,-3.0553,-3.062,-3.0697,-3.064,-3.0662,-3.0627,-3.069,-3.0853,-3.062,-3.062,-3.0665,-3.1025,-3.1074,-3.1106,-3.0816,-3.082,-3.0824,-3.1024,0,-3.0472,-3.0609,-3.0565,-3.0704,-3.0763,-3.0681,-3.0751,-3.0765,-3.0752,-3.0801,-3.0786,-3.0842,-3.0761,-3.0774,-3.0832,-3.0821,-3.0925,-3.0805,-3.088,-3.0884,-3.0881,-3.114,-3.1192,-3.1381,-3.1049,-3.1054,-3.1057,0,-3.0721,-3.0753,-3.0898,-3.0896,-3.0919,-3.0983,-3.1019,-3.1066,-3.108,-3.1066,-3.109,-3.1041,-3.1121,-3.1022,-3.1132,-3.1052,-3.1079,-3.1078,-3.1084,-3.1092,-3.0983,-3.1157,-3.1439,-3.1469,-3.1096,-3.1093,-3.109,0,-3.092,-3.0998,-3.1094,-3.1107,-3.1107,-3.1155,-3.1157,-3.1165,-3.1194,-3.1226,-3.1244,-3.1285,-3.1308,-3.1342,-3.1306,-3.1236,-3.1422,-3.1319,-3.1415,-3.1416,-3.1461,-3.1459,-3.1754,-3.1474,-3.1473,-3.1473,-3.1472,0,-3.1146,-3.1239,-3.1183,-3.1244,-3.1345,-3.1292,-3.1394,-3.1388,-3.1395,-3.1454,-3.1385,-3.1441,-3.1389,-3.1441,-3.1413,-3.151,-3.152,-3.1512,-3.1504,-3.152,-3.1522,-3.154,-3.1527,-3.148,-3.1479,-3.1477,-3.1476,0,-3.1386,-3.1353,-3.1453,-3.1444,-3.1444,-3.152,-3.1512,-3.1568,-3.1548,-3.1623,-3.1638,-3.1608,-3.1666,-3.1632,-3.1691,-3.1672,-3.1798,-3.1771,-3.1794,-3.1788,-3.1886,-3.1878,-3.2206,-3.2247,-3.1938,-3.1941,-3.1943,0,-3.1535,-3.1604,-3.1601,-3.1635,-3.1641,-3.1696,-3.1724,-3.1675,-3.1707,-3.1728,-3.1782,-3.1832,-3.1871,-3.1966,-3.1951,-3.1996,-3.1971,-3.2082,-3.1978,-3.1992,-3.1976,-3.1973,-3.1981,-3.2105,-3.2109,-3.2112,-3.2114,0,-3.1802,-3.1782,-3.1825,-3.1863,-3.1898,-3.1926,-3.1948,-3.1979,-3.1929,-3.197,-3.2026,-3.2056,-3.2115,-3.2168,-3.2205,-3.2208,-3.2155,-3.2146,-3.2171,-3.219,-3.2201,-3.2199,-3.1855,-3.214,-3.2137,-3.2136,-3.2134,-3.2133,-3.2003,-3.206,-3.2068,-3.2118,-3.2129,-3.2151,-3.2203,-3.2189,-3.2235,-3.2279,-3.2246,-3.2314,-3.2326,-3.237,-3.2381,-3.2434,-3.2389,-3.2425,-3.2434,-3.2445,-3.2459,-3.219,-3.244,-3.2439,-3.2439,-3.2438,-3.2437,0,-3.2269,-3.2269,-3.2315,-3.2348,-3.2387,-3.2329,-3.235,-3.2388,-3.2448,-3.2463,-3.2501,-3.2567,-3.2617,-3.2605,-3.265,-3.2695,-3.2671,-3.2709,-3.2707,-3.2709,-3.2496,-3.2471,-3.2727,-3.2727,-3.2727,-3.2727,-3.2727,-3.2727,-3.2412,-3.2507,-3.2488,-3.2587,-3.2587,-3.2652,-3.2669,-3.2689,-3.27,-3.2776,-3.2817,-3.2807,-3.2812,-3.2856,-3.29,-3.2895,-3.2916,-3.2963,-3.295,-3.2752,-3.2724,-3.2696,-3.2673,-3.2968,-3.2968,-3.3159,-3.316,-3.3162]},{"header":{"parameterUnit":"m.s-1","parameterCategory":1,"la1":30.2991,"la2":30.254,"lo1":-89.0895,"lo2":-89.0444,"dy":0.0017,"dx":0.0017,"nx":28,"ny":28,"refTime":"2024-06-20T21:00:00:Z","depth":0,"parameterNumber":3,"parameterNumberName":"V-component_of_WINDS"},"data":[0,0,0,0,0,0,0,0,0,0,0,0,0,0,0,0,0,0,0,0,0,0,0,0,0,0,0,0,0,0,0,0,0,0,0,0,0,0,0,0,0,0,0,0,0,0,0,0,0,0,0,0,0,0,0,0,0,0,-2.2979,-2.2979,0,-2.2996,-2.2996,-2.2996,-2.2987,-2.2987,-2.2987,-2.2986,-2.3002,-2.3003,-2.3003,0,0,0,0,0,0,0,0,0,0,0,0,0,-2.2937,-2.2938,-2.2979,-2.2979,-2.2979,-2.2996,-2.2996,-2.2996,-2.2987,-2.2987,-2.2986,-2.2986,-2.3001,-2.3002,-2.3003,0,0,0,0,0,0,0,0,0,0,0,0,0,-2.2955,-2.2938,-2.2979,-2.2977,-2.2977,-2.2996,-2.2996,-2.2996,-2.2988,-2.2987,-2.2986,-2.2986,-2.3001,-2.3002,-2.3004,-2.3024,0,0,-2.3007,-2.3008,0,0,0,0,0,0,0,0,-2.2954,-2.2956,-2.2977,-2.2977,-2.2977,-2.2989,-2.2987,-2.3006,-2.2988,-2.2984,-2.2986,-2.2985,-2.2998,-2.2999,-2.3004,-2.3025,-2.3026,-2.3007,-2.3008,-2.3009,-2.3009,0,0,0,0,0,0,0,-2.2952,-2.2955,-2.2985,-2.2977,-2.2977,-2.2975,-2.2976,-2.299,-2.2994,-2.2984,-2.2983,-2.2985,-2.2998,-2.3003,-2.3004,-2.3026,-2.3007,-2.3009,-2.3009,-2.301,-2.3064,-2.3065,0,0,0,0,0,0,-2.2952,-2.2954,-2.2985,-2.2986,-2.2964,-2.2976,-2.2978,-2.2986,-2.2994,-2.2995,-2.2986,-2.2985,-2.3001,-2.3003,-2.3005,-2.3029,-2.3009,-2.301,-2.3011,-2.3063,-2.3064,-2.3065,0,0,0,0,0,0,-2.2951,-2.2954,-2.2984,-2.297,-2.2974,-2.2977,-2.2986,-2.2986,-2.2991,-2.2996,-2.2996,-2.299,-2.3,-2.3003,-2.3019,-2.3029,-2.301,-2.3012,-2.3062,-2.3063,-2.3064,-2.3077,0,0,0,0,0,0,-2.2949,-2.2954,-2.2963,-2.297,-2.2974,-2.2999,-2.2987,-2.2987,-2.2994,-2.2993,-2.3,-2.3001,-2.3,-2.3018,-2.3021,-2.303,-2.3013,-2.3061,-2.3063,-2.3064,-2.3076,-2.3078,-2.3081,0,0,0,0,0,-2.2948,-2.2966,-2.2963,-2.2967,-2.2985,-2.3,-2.3002,-2.3002,-2.2995,-2.3003,-2.3005,-2.3,-2.3028,-2.3019,-2.3023,-2.3033,-2.3061,-2.3062,-2.3064,-2.3075,-2.3078,-2.3081,0,0,0,0,0,0,-2.2959,-2.2967,-2.2964,-2.2985,-2.2992,-2.2998,-2.3009,-2.3006,-2.3014,-2.3013,-2.3012,-2.3013,-2.303,-2.3033,-2.3024,-2.3053,-2.3043,-2.3045,-2.305,-2.3053,-2.3056,-2.3054,-2.3014,0,0,0,0,0,-2.2963,-2.2975,-2.2981,-2.2999,-2.3003,-2.3005,-2.3012,-2.3011,-2.3018,-2.302,-2.3024,-2.3031,-2.3041,-2.3047,-2.3057,-2.3077,-2.3077,-2.3085,-2.3088,-2.309,-2.3091,-2.3101,-2.3104,-2.307,-2.307,-2.307,0,0,-2.2973,-2.2979,-2.2987,-2.3001,-2.3007,-2.3018,-2.3008,-2.3021,-2.3029,-2.3022,-2.3038,-2.3041,-2.3048,-2.3066,-2.3074,-2.3069,-2.3101,-2.3092,-2.3093,-2.3094,-2.3102,-2.3106,-2.3109,-2.3071,-2.3071,-2.3071,0,0,-2.2997,-2.3003,-2.3018,-2.3023,-2.3032,-2.3033,-2.3037,-2.3044,-2.3046,-2.3061,-2.3056,-2.3066,-2.3083,-2.3088,-2.3093,-2.3118,-2.3113,-2.3121,-2.3133,-2.3142,-2.3145,-2.3147,-2.3155,-2.3158,-2.3123,-2.3123,-2.3123,0,-2.3008,-2.3026,-2.3026,-2.3038,-2.3044,-2.304,-2.3054,-2.3059,-2.307,-2.3074,-2.3068,-2.3089,-2.3094,-2.3112,-2.3118,-2.3123,-2.3126,-2.3119,-2.3145,-2.3147,-2.3149,-2.3156,-2.3159,-2.3123,-2.3123,-2.3123,-2.3123,0,-2.3038,-2.305,-2.3061,-2.3071,-2.3079,-2.3092,-2.3093,-2.3101,-2.3099,-2.3101,-2.3116,-2.3121,-2.3131,-2.3136,-2.3134,-2.3154,-2.315,-2.3145,-2.3135,-2.3153,-2.316,-2.3162,-2.3125,-2.3124,-2.3124,-2.3124,0,0,-2.3068,-2.3079,-2.3082,-2.3087,-2.3095,-2.3104,-2.3117,-2.3127,-2.3132,-2.314,-2.315,-2.3165,-2.3159,-2.3165,-2.3164,-2.3172,-2.319,-2.3165,-2.3166,-2.3169,-2.3209,-2.3213,-2.3216,-2.3187,-2.3187,-2.3188,-2.3208,0,-2.3091,-2.3114,-2.3114,-2.3135,-2.3145,-2.3141,-2.3152,-2.3157,-2.3159,-2.3168,-2.317,-2.318,-2.3173,-2.3176,-2.3184,-2.3186,-2.3197,-2.3184,-2.3195,-2.3195,-2.3192,-2.3219,-2.3223,-2.3242,-2.3211,-2.3212,-2.3212,0,-2.3121,-2.313,-2.3152,-2.3157,-2.3162,-2.3172,-2.318,-2.3189,-2.3195,-2.3196,-2.3202,-2.3199,-2.3211,-2.3202,-2.3217,-2.3208,-2.3213,-2.3214,-2.3215,-2.3215,-2.3204,-2.3219,-2.3248,-2.3251,-2.3216,-2.3216,-2.3216,0,-2.314,-2.3157,-2.3171,-2.3175,-2.3183,-2.319,-2.3193,-2.3199,-2.3205,-2.3212,-2.3215,-2.3224,-2.3229,-2.3235,-2.3235,-2.3228,-2.325,-2.3241,-2.325,-2.325,-2.3254,-2.3254,-2.3283,-2.3259,-2.3259,-2.3259,-2.3259,0,-2.3165,-2.3178,-2.3179,-2.3188,-2.3203,-2.3202,-2.3216,-2.3219,-2.3224,-2.3232,-2.3229,-2.3237,-2.3237,-2.3245,-2.3245,-2.3257,-2.326,-2.326,-2.3259,-2.3259,-2.3259,-2.3261,-2.3259,-2.326,-2.3259,-2.3259,-2.3259,0,-2.3187,-2.3189,-2.3205,-2.3211,-2.3212,-2.3222,-2.3227,-2.3235,-2.3237,-2.3248,-2.325,-2.3252,-2.3262,-2.3262,-2.3273,-2.3273,-2.3287,-2.3286,-2.3285,-2.3284,-2.3293,-2.3292,-2.3324,-2.3328,-2.3302,-2.3303,-2.3303,0,-2.3203,-2.3212,-2.3219,-2.3225,-2.3229,-2.3238,-2.3244,-2.3244,-2.325,-2.3257,-2.3264,-2.3273,-2.328,-2.3295,-2.3297,-2.3305,-2.3303,-2.3314,-2.3304,-2.3303,-2.3301,-2.33,-2.3301,-2.3315,-2.3315,-2.3316,-2.3316,0,-2.3229,-2.3229,-2.3238,-2.3246,-2.3253,-2.326,-2.3266,-2.3271,-2.3271,-2.3278,-2.3287,-2.3293,-2.3304,-2.3312,-2.332,-2.3322,-2.3319,-2.3319,-2.3321,-2.3321,-2.332,-2.3319,-2.3289,-2.3318,-2.3318,-2.3318,-2.3318,-2.3317,-2.3247,-2.3256,-2.3261,-2.3271,-2.3275,-2.3281,-2.3288,-2.3291,-2.3299,-2.3308,-2.3307,-2.3317,-2.3322,-2.3332,-2.3335,-2.3343,-2.3339,-2.3343,-2.3343,-2.3344,-2.3344,-2.3319,-2.3344,-2.3344,-2.3344,-2.3344,-2.3344,0,-2.3273,-2.3276,-2.3285,-2.3293,-2.33,-2.3297,-2.3303,-2.3309,-2.3318,-2.3324,-2.3331,-2.3341,-2.3349,-2.3352,-2.3359,-2.3365,-2.3363,-2.3366,-2.3365,-2.3366,-2.3348,-2.3345,-2.3367,-2.3367,-2.3367,-2.3367,-2.3367,-2.3367,-2.3286,-2.3299,-2.33,-2.3315,-2.3318,-2.3328,-2.3332,-2.3337,-2.3341,-2.3353,-2.336,-2.3361,-2.3365,-2.3373,-2.338,-2.3381,-2.3383,-2.3387,-2.3387,-2.337,-2.3367,-2.3365,-2.3362,-2.3388,-2.3388,-2.3404,-2.3404,-2.3404]}]]